Location: Niverville
(49.6028°N, 97.0419°W)
Time: 07:00:40
(UTC-05:00)

Daily predictions for brighter satellites

Satellite Brightness Start Highest point End
(mag) Time Altitude Azimuth Time Altitude Azimuth Time Altitude Azimuth
Spot 2 Rocket 3.6 20:54:14 10° SSE 20:59:20 87° ENE 21:04:28 10° NNW
H-2A R/B 4.5 20:58:17 10° SSW 21:01:46 35° W 21:05:15 10° NNW
ATLAS 3B R/B 2.7 20:55:46 10° NW 21:02:39 76° NE 21:09:12 10° SE
SL-8 R/B 4.0 20:59:29 10° W 21:04:11 58° SSW 21:08:54 10° ESE
Helios 1A 3.7 21:02:22 10° SE 21:06:19 38° ENE 21:10:16 10° N
Okean 1-7 Rocket 4.1 21:07:16 10° N 21:11:36 44° ENE 21:15:56 10° SSE
ERS-1 Rocket 3.9 21:07:36 10° SE 21:12:00 32° ENE 21:16:26 10° N
Molniya-1 4.0 21:10:08 10° NNW 21:12:28 43° NE 21:15:39 10° ESE
YAOGAN 6 2.9 21:11:05 10° SE 21:14:28 45° ENE 21:17:51 10° N
S3M 4.5 21:08:45 10° NNW 21:15:00 69° W 21:21:17 10° S
EXPRESS MD2 3.1 21:13:28 10° SW 21:16:05 55° SSE 21:20:39 10° ENE
ARGOS 4.2 21:12:48 10° ESE 21:17:20 29° ENE 21:21:53 10° N
BREEZE-M DEB (TANK) 2.2 21:16:31 10° SW 21:19:20 30° SSE 21:20:55 12° E
USA 267 4.4 21:13:40 10° SSE 21:19:38 37° SW 21:25:39 10° WNW
ATLAS CENTAUR R/B 3.8 21:19:36 10° N 21:20:19 10° NNE 21:21:03 10° NNE
Cosmos 2266 Rocket 3.9 21:15:38 10° S 21:21:35 67° E 21:27:35 10° NNE
Resurs 01 Rocket 2.6 21:17:31 10° S 21:21:51 50° W 21:26:13 10° NNW
Cosmos 2151 Rocket 4.2 21:18:51 10° SSW 21:23:11 61° WNW 21:27:35 10° N
NOSS 2-3 (D) 3.9 21:18:49 10° SSW 21:23:35 72° SE 21:29:18 10° NE
BREEZE-M DEB (TANK) 3.4 21:20:58 10° SW 21:24:08 44° SE 21:33:15 10° ENE
Cosmos 2263 Rocket 3.1 21:20:21 10° NW 21:25:51 50° WSW 21:31:17 10° S
Envisat 3.4 21:23:46 10° S 21:28:49 68° WSW 21:33:55 10° NNW
NOSS 3-2 (C) 4.3 21:22:32 10° NW 21:29:37 55° NE 21:36:46 13° ESE
Cosmos 1844 Rocket 3.1 21:26:27 10° NNW 21:32:01 52° NE 21:36:49 14° SE
Cosmos 2315 Rocket 4.0 21:25:54 10° N 21:32:10 71° ENE 21:38:27 10° SSE
Cosmos 2278 Rocket 3.5 21:28:58 10° NNW 21:33:49 28° NE 21:38:10 12° E
SPOT 5 3.9 21:31:51 13° ESE 21:35:09 27° ENE 21:39:00 10° N
Lacrosse 5 1.9 21:30:44 10° SW 21:35:44 63° SE 21:40:46 10° ENE
Cosmos 2322 Rocket 2.6 21:31:55 10° SW 21:37:37 69° WNW 21:43:19 10° NNE
Cosmos 1515 3.7 21:35:44 10° N 21:39:32 63° ENE 21:43:01 12° SSE
Helios 1B rocket 2.9 21:35:41 10° NNE 21:39:35 40° E 21:43:28 10° S
MetOp-B 4.5 21:37:45 13° SE 21:42:20 49° ENE 21:47:30 10° N
Cosmos 1892 Rocket 4.0 21:38:28 10° N 21:42:44 44° ENE 21:45:55 16° SE
Spot 1 4.4 21:41:10 10° SSE 21:46:17 80° ENE 21:51:15 10° NNW
CENTAUR R/B 3.9 21:42:20 10° NW 21:49:20 41° NNE 21:56:35 12° E
Cosmos 2237 4.5 21:44:10 10° S 21:49:33 46° ESE 21:54:58 10° NE
Cosmos 1302 Rocket 4.5 21:45:08 10° S 21:50:00 39° ESE 21:54:53 10° NE
H-2A R/B 2.8 21:46:54 17° ESE 21:50:04 33° ENE 21:54:29 10° N
ATLAS 2AS CENTAUR R/B 3.0 21:42:31 10° SSW 21:50:20 81° SE 21:58:31 10° NE
SL-16 R/B 3.0 21:45:48 10° SW 21:51:22 56° NW 21:56:59 10° NNE
Cosmos 1486 Rocket 4.0 21:46:39 10° NNW 21:51:56 76° ENE 21:56:04 16° SSE
Cosmos 2219 Rocket 3.3 21:50:02 16° SE 21:52:42 23° ESE 21:57:00 10° NE
Cosmos 1500 3.4 21:54:32 12° S 21:57:55 52° E 22:01:42 10° NNE
Abrixas rocket 2.8 21:55:39 10° W 21:58:47 42° SSW 22:00:06 27° SSE
Cosmos 1110 Rocket 3.9 21:53:49 10° SSW 21:58:59 84° ESE 22:04:13 10° NNE
SeaSat 1 2.4 21:54:05 10° NNE 21:59:02 72° ESE 22:03:57 10° SSW
SAR-Lupe-4 3.5 21:57:26 20° SSE 21:59:49 74° ENE 22:03:25 10° N
Cosmos 1544 Rocket 4.2 21:57:19 19° SSE 21:59:56 37° E 22:04:02 10° NNE
NOSS 2-3 (E) 4.5 21:55:38 10° SW 22:00:30 67° NW 22:06:25 10° NE
Okean 2 3.7 21:57:20 10° NNW 22:01:24 64° W 22:05:27 10° S
NOSS 3-4 (A) 4.4 21:56:39 10° SSE 22:01:35 25° ESE 22:06:37 10° ENE
NOSS 3-4 (C) 4.4 21:57:10 11° SSE 22:01:41 24° ESE 22:06:43 10° ENE
Cosmos 405 3.2 22:01:07 20° SSE 22:03:18 48° E 22:06:47 10° NNE
Aureole 2 Rocket 4.2 22:05:19 16° ENE 22:05:19 16° ENE 22:06:23 10° NE
Cosmos 2322 3.6 21:59:06 10° SSW 22:04:44 74° ESE 22:10:26 10° NNE
Terra 3.3 22:04:46 18° E 22:06:47 23° ENE 22:10:29 10° N
Cosmos 2360 Rocket 2.2 22:03:08 10° SSW 22:08:47 88° WNW 22:14:27 10° NNE
Cosmos 1331 Rocket 4.0 22:04:49 10° SSW 22:10:01 89° WNW 22:15:19 10° NNE
Cosmos 1975 2.9 22:09:21 21° SSE 22:11:46 54° E 22:15:40 10° NNE
Cosmos 1455 Rocket 3.5 22:09:49 24° SSE 22:12:01 42° E 22:16:15 10° NNE
GP-B 4.4 22:12:06 10° NNE 22:15:39 23° E 22:16:18 22° E
CZ-4B DEB 3.4 22:14:32 20° SSW 22:16:12 44° W 22:18:58 10° NNW
SAR-Lupe-1 4.0 22:14:38 26° SSE 22:16:32 85° WSW 22:20:10 10° NNW
OPS 6432 4.2 22:13:48 10° SSW 22:17:07 53° SE 22:20:05 10° NE
Cosmos 1844 3.7 22:11:32 10° NNW 22:17:15 82° ENE 22:20:44 25° SSE
COSMOS 2428 2.8 22:12:21 10° S 22:17:55 54° ESE 22:23:29 10° NE
Cosmos 1025 Rocket 4.5 22:18:54 10° NNW 22:22:48 35° W 22:26:41 10° SSW
Cosmos 724 4.3 22:21:00 10° NW 22:26:56 81° SW 22:30:09 28° SSE
USA 215 4.1 22:21:01 10° ENE 22:27:15 49° N 22:33:29 10° W
MetOp-A 4.3 22:24:20 18° S 22:28:22 72° WSW 22:33:45 10° NNW
Meteor 1-12 Rocket 4.1 22:25:13 14° S 22:30:05 71° E 22:35:45 10° NNE
Cosmos 2333 Rocket 2.8 22:29:06 29° SE 22:30:48 35° ESE 22:35:54 10° NE
Cosmos 1354 Rocket 4.0 22:26:05 10° NNW 22:31:28 86° ENE 22:34:08 31° SSE
BREEZE M DEB (TANK) 3.4 22:28:09 10° SW 22:32:14 27° S 22:32:14 27° S
Cosmos 2333 4.1 22:30:39 10° SSW 22:36:15 68° ESE 22:41:51 10° NNE
Cosmos 1437 Rocket 2.8 22:36:50 46° SE 22:37:34 55° E 22:41:26 10° NNE
Nadezhda 1 Rocket 4.0 22:32:48 10° N 22:39:10 77° E 22:42:45 28° SSE
NOSS 3-2 (A) 4.2 22:33:01 10° NW 22:40:21 68° SW 22:45:10 26° SSE
Cosmos 2237 Rocket 2.9 22:42:11 30° ESE 22:42:17 30° ESE 22:47:08 10° NE
Cosmos 1666 2.9 22:42:52 50° ESE 22:43:01 50° E 22:46:46 10° NNE
CARTOSAT-1 4.1 22:44:39 39° E 22:45:27 43° ENE 22:49:35 10° N
DMSP B5D2-2 4.4 22:42:32 10° NNE 22:47:34 44° E 22:48:40 39° SE
Cosmos 1980 4.2 22:48:44 36° ESE 22:49:19 37° ESE 22:54:30 10° NE
ERS-1 Rocket 4.0 22:46:59 16° SSW 22:50:41 41° W 22:55:27 10° NNW
Cosmos 1503 Rocket 4.2 22:45:56 10° NNW 22:51:17 68° WSW 22:53:41 33° S
Meteor 1-29 4.5 22:48:30 10° N 22:51:41 36° WNW 22:54:32 12° SW
Cosmos 1818 3.4 22:46:16 10° SSW 22:51:41 79° SE 22:57:10 10° NE
SPOT 1/Viking Rocket 3.5 22:49:27 34° SSE 22:51:48 85° WSW 22:57:03 10° NNW
ATLAS 3B R/B 4.1 22:47:13 10° WNW 22:52:42 28° WSW 22:57:14 13° SSW
Cosmos 1602 Rocket 3.4 22:49:03 10° N 22:53:25 77° E 22:54:19 54° SSE
SL-08 RB Rocket 4.1 22:53:48 31° SSW 22:55:48 58° W 23:00:17 10° NNW
ARGOS 3.8 22:54:03 22° SSW 22:57:20 51° W 23:02:36 10° NNW
BREEZE-M DEB 3.4 22:50:37 10° WNW 22:57:41 46° SW 22:58:04 44° SSW
H-2A R/B 3.0 22:57:37 32° E 22:58:07 33° ENE 23:02:05 10° N
ATLAS CENTAUR R/B 2.3 22:57:03 10° NNW 23:00:24 32° NE 23:00:51 31° NE
Cosmos 1709 Rocket 4.2 23:00:38 39° SE 23:02:21 49° E 23:08:22 10° NNE
Cosmos 1842 3.1 22:58:37 10° N 23:02:35 74° E 23:02:46 72° ESE
USA 81 4.3 22:57:35 10° N 23:02:47 53° E 23:03:52 45° ESE
Cosmos 2181 Rocket 4.3 22:57:33 10° N 23:03:54 55° ENE 23:05:56 40° SE
Cosmos 1743 2.9 23:04:31 50° SW 23:05:20 67° W 23:09:10 10° N
RESURS DK-1 4.4 23:08:47 17° ENE 23:08:47 17° ENE 23:09:59 10° NE
Cosmos 2297 4.1 23:02:23 10° NNW 23:07:57 52° NE 23:09:37 39° ESE
SPOT 5 3.7 23:11:06 27° SSW 23:13:05 42° W 23:17:27 10° NNW
BREEZE M DEB (TANK) 3.0 23:10:03 10° W 23:14:50 56° WSW 23:14:50 56° WSW
COSMOS 2455 3.2 23:09:38 10° NNW 23:15:35 56° NE 23:17:33 39° ESE
Cosmos 1844 Rocket 4.1 23:10:46 10° NW 23:15:41 31° WSW 23:18:29 20° SSW
Cosmos 1626 Rocket 3.9 23:11:57 10° NNW 23:16:13 59° W 23:17:03 48° SW
CZ-2C R/B 4.3 23:17:26 23° ENE 23:18:05 23° ENE 23:21:55 10° N
Cosmos 2278 Rocket 2.3 23:12:45 10° NNW 23:18:24 69° WSW 23:20:01 46° S
Lacrosse 5 2.8 23:14:00 10° W 23:18:55 47° NNW 23:23:50 10° NE
Cosmos 1340 Rocket 4.4 23:15:52 10° NNE 23:18:33 23° NE 23:18:33 23° NE
NOSS 3-2 (C) 4.4 23:13:34 10° NW 23:20:46 53° WSW 23:24:12 33° S
DNEPR-1 R/B 3.6 23:16:52 10° NW 23:21:14 75° NE 23:21:44 66° E
Cosmos 2292 Rocket 4.4 23:17:35 29° SSW 23:21:19 84° W 23:26:40 10° N
IGS 5A 3.3 23:24:21 81° SW 23:24:28 82° WSW 23:28:40 10° NNW
NOSS 0 Rocket 3.8 23:22:04 37° S 23:24:36 72° ESE 23:30:51 10° NNE
CZ-2C R/B 4.4 23:23:55 10° NE 23:26:48 18° ENE 23:26:48 18° ENE
Landsat 7 4.2 23:27:50 45° SW 23:28:51 55° W 23:33:33 10° NNW
H-2A R/B 3.0 23:27:33 28° SW 23:29:27 38° W 23:34:05 10° NNW
Cosmos 1992 Rocket 3.9 23:29:33 51° SSW 23:30:55 90° SE 23:36:11 10° NNE
Cosmos 968 Rocket 3.3 23:26:54 10° NNW 23:32:02 79° WSW 23:32:43 66° S
EXPRESS MD2 4.0 23:30:05 10° W 23:34:00 89° NNE 23:37:13 33° E
Cosmos 2219 Rocket 2.4 23:31:38 16° SW 23:36:08 68° WNW 23:41:48 10° NNE
Aureole 2 Rocket 4.1 23:38:48 28° WNW 23:38:58 29° WNW 23:41:46 10° N
Cosmos 1825 Rocket 3.5 23:35:25 10° N 23:39:28 75° NNE 23:39:28 75° NNE
CENTAUR R/B 3.0 23:33:05 10° NW 23:40:51 83° SW 23:43:45 46° SSE
ATLAS 2AS CENTAUR R/B 4.2 23:34:36 10° W 23:42:09 43° NNW 23:49:51 10° NE
Meteor 2-9 Rocket 4.2 23:41:01 48° SSW 23:42:41 79° WNW 23:48:20 10° N
Meteor 1-4 Rocket 3.5 23:43:42 49° N 23:43:42 49° N 23:46:36 10° N
Terra 2.2 23:43:40 52° SW 23:44:12 55° W 23:48:54 10° NNW
SL-24 R/B 4.4 23:39:42 10° N 23:44:21 65° ENE 23:44:21 65° ENE
ATLAS CENTAUR R/B 3.6 23:29:58 10° WNW 23:45:17 71° NNE 23:47:42 39° E
NOSS 3-4 (A) 3.5 23:45:27 10° SW 23:51:46 81° NW 23:58:24 10° NE
Cosmos 1943 Rocket 4.2 23:47:51 10° N 23:51:48 19° NE 23:54:33 14° ENE
NOSS 3-4 (C) 3.5 23:45:33 10° SW 23:51:52 81° NW 23:58:31 10° NE
SL-16 R/B 2.8 23:53:30 42° E 23:53:30 42° E 23:57:55 10° NE
GP-B 4.0 23:48:56 10° N 23:53:09 43° W 23:53:45 40° WSW
Cosmos 2058 Rocket 4.3 23:55:13 32° NE 23:55:13 32° NE 23:58:01 10° NNE
ERBS 4.3 23:52:48 10° NW 23:55:41 27° N 23:55:41 27° N
